Home   Weather   Altdorf   Past weeks

Flag for Switzerland Past Weather in Altdorf, Uri, Switzerland — Yesterday and Last 2 Weeks

Now
57 °F

Clear.


Feels Like: 57 °F
Forecast: 56 / 75 °F
Wind: 2 mph from South

Location: Altdorf

Current Time: Sep 30, 2016 at 12:16:59 AM

Latest Report: Sep 29, 2016 at 11:00 PM


Visibility: 16 mi

Pressure: 30.16 "Hg

Humidity: 81%

Dew Point: 51 °F

Location of AltdorfLocation

Past Weather in Altdorf — Graph

°F

Altdorf Temperature Yesterday

Maximum temperature yesterday: 71 °F (at 4:00 PM)
Minimum temperature yesterday: 49 °F (at 8:00 AM)
Average temperature yesterday: 58 °F

High & Low Weather Summary for the Past Weeks

 TemperatureHumidityPressure
High78 °F (Sep 15, 12:00 AM)100% (Sep 24, 7:00 AM)30.46 "Hg (Sep 24, 7:00 AM)
Low46 °F (Sep 25, 6:00 AM)30% (Sep 15, 12:00 AM)29.73 "Hg (Sep 15, 5:00 AM)
Average59 °F82%30.12 "Hg
* Reported Sep 14 10:00 PM — Sep 29 10:00 PM, Altdorf, Weather by CustomWeather, © 2016

Note: Actual official high and low records may vary slightly from our data, if they occured in-between our weather recording intervals... More about our weather records

Advertising

Altdorf Weather History for the Previous 24 Hours

Scroll right to see more
 ConditionsComfort  
Time TempWeatherWind HumidityBarometerVisibility
10:00 PM
Thu, Sep 29
55 °FCool.2 mph89%30.17 "HgN/A
9:00 PM57 °FCool.1 mph83%30.16 "HgN/A
8:00 PM61 °FClear.2 mph75%30.15 "Hg19 mi
7:00 PM63 °FMild.5 mph70%30.15 "HgN/A
6:00 PM65 °FMild.2 mph68%30.14 "HgN/A
5:00 PM67 °FPassing clouds.2 mph68%30.14 "Hg19 mi
4:00 PM71 °FMild.2 mph62%30.14 "HgN/A
3:00 PM69 °FMild.2 mph58%30.17 "HgN/A
2:00 PM68 °FScattered clouds.5 mph56%30.20 "Hg19 mi
1:00 PM66 °FMild.3 mph59%30.23 "HgN/A
12:00 PM65 °FMild.2 mph61%30.26 "HgN/A
11:00 AM62 °FScattered clouds.No wind68%30.29 "Hg19 mi
10:00 AM59 °FCool.1 mph73%30.31 "HgN/A
9:00 AM53 °FCool.2 mph89%30.34 "HgN/A
8:00 AM49 °FPassing clouds.3 mph94%30.36 "Hg19 mi
7:00 AM51 °FCool.1 mph91%30.35 "HgN/A
6:00 AM49 °FCool.3 mph95%30.37 "HgN/A
5:00 AM51 °FPassing clouds.3 mph93%30.37 "Hg19 mi
4:00 AM51 °FCool.1 mph95%30.39 "HgN/A
3:00 AM52 °FCool.1 mph92%30.39 "HgN/A
2:00 AM54 °FPassing clouds.2 mph88%30.40 "Hg19 mi
1:00 AM53 °FCool.2 mph91%30.42 "HgN/A
12:00 AM55 °FCool.2 mph89%30.42 "HgN/A
Weather by CustomWeather, © 2016

See weather overviewHow to use our weather pages